Regional Weather Roundup
Issued by NWS

Home | Current Version | Previous Version | Graphics & Text | Print | Product List | Glossary Off
Versions: 1 2 3 4 5 6 7 8 9 10 11 12 13 14 15 16 17 18 19 20 21 22 23 24 25 26 27 28 29 30 31 32 33 34 35 36 37 38 39 40 41 42 43 44 45 46 47 48 49 50

000
ASUS43 KMKX 280800
RWRWI

WISCONSIN REGIONAL WEATHER ROUNDUP
NATIONAL WEATHER SERVICE MILWAUKEE/SULLIVAN WI
300 AM CDT MON JUL 28 2014

NOTE: "FAIR" INDICATES FEW OR NO CLOUDS BELOW 12,000 FEET WITH NO
SIGNIFICANT WEATHER AND/OR OBSTRUCTIONS TO VISIBILITY.

WIZ001-002-006>008-014>016-023>028-280900-
NORTHWEST WISCONSIN

CITY           SKY/WX    TMP DP  RH WIND       PRES   REMARKS
SUPERIOR ARPT  CLOUDY    53  53  99 CALM      30.13R
ASHLAND        CLEAR     51  49  92 W3        30.12R
HAYWARD        FOG       46  46 100 CALM      30.14R VSB 1/4
SIREN          MOCLDY    55  55  97 CALM      30.13S
RICE LAKE      MOCLDY    54  52  94 CALM      30.15R
LADYSMITH      CLEAR     55  52  92 NW7       30.14R
EAU CLAIRE     NOT AVBL
MENOMONIE      PTSUNNY   57  54  90 CALM      30.13S
NEW RICHMOND   MOCLDY    57  56  95 CALM      30.14S
OSCEOLA        CLOUDY    58  58 100 CALM      30.16S
$$

WIZ003>005-009-010-017-018-280900-
NORTH CENTRAL WISCONSIN

CITY           SKY/WX    TMP DP  RH WIND       PRES   REMARKS
WOODRUFF       CLEAR     49  47  93 CALM      30.09R
RHINELANDER    CLEAR     51  48  89 NW3       30.08R
EAGLE RIVER    CLEAR     46  46 100 CALM      30.07R
LAND O LAKES   CLEAR     50  47  89 NW5       30.08R
PHILLIPS       CLEAR     48  47  97 CALM      30.10R
TOMAHAWK       CLEAR     47  46  95 W5        30.09R
MEDFORD        CLEAR     50  48  95 NW5       30.10R
MERRILL        CLEAR     50  49  98 NW6       30.08R
$$

WIZ029-030-035-036-043>047-280900-
CENTRAL WISCONSIN

CITY           SKY/WX    TMP DP  RH WIND       PRES   REMARKS
WAUSAU         CLEAR     52  50  93 NW8       30.06R
MOSINEE        CLEAR     52  52 100 NW8       30.09R
MARSHFIELD     CLEAR     53  50  89 NW10      30.09R
STEVENS POINT  CLEAR     52  50  92 NW6       30.07R
WAUPACA        CLEAR     56  51  84 NW6       30.04R
WAUTOMA        NOT AVBL
WISC RAPIDS    CLEAR     54  51  90 MISG      30.08S
CAMP DOUGLAS   NOT AVBL
$$

WIZ011>013-019>022-031-037>040-048>050-280900-
NORTHEAST WISCONSIN

CITY           SKY/WX    TMP DP  RH WIND       PRES   REMARKS
ANTIGO         CLEAR     47  47  97 NW3       30.06R
STURGEON BAY   CLEAR     54  45  71 N18G26    29.98S
GREEN BAY      CLEAR     54  46  74 N9        30.01R
MANITOWOC      NOT AVBL
APPLETON       CLEAR     54  48  82 N9        30.02R
CLINTONVILLE   CLEAR     54  48  82 NW6       30.04R
OSHKOSH        CLEAR     57  50  77 N13       30.01R
$$

WIZ032>034-041-042-053>061-280900-
SOUTHWEST WISCONSIN

CITY           SKY/WX    TMP DP  RH WIND       PRES   REMARKS
LA CROSSE      CLEAR     57  52  83 N8        30.10R
SPARTA         CLEAR     54  51  90 N6        30.10S
VIROQUA        FAIR      55  54  98 N6        30.09R
BOSCOBEL       CLEAR     60  53  77 N3        30.07R
PRAIRIE DU CHI CLEAR     61  52  72 N5        30.08R
PLATTEVILLE    FAIR      58  55  88 N9        30.06S
$$

WIZ056-057-062-063-064-067-068-280900-
SOUTH CENTRAL WISCONSIN

CITY           SKY/WX    TMP DP  RH WIND       PRES   REMARKS
BARABOO/DELLS  CLEAR     56  51  84 N6        30.05R
LONE ROCK      NOT AVBL
WATERTOWN      CLEAR     57  52  82 N10       30.00R
MADISON        CLEAR     58  52  80 N9        30.03R
MIDDLETON      FAIR      58  54  85 N8        30.03S
MONROE         CLEAR     59  54  82 NW6       30.02R
JANESVILLE     CLEAR     59  52  77 N7        30.00R
$$

WIZ051-052-058>065-066-070>072-280900-
SOUTHEAST WISCONSIN

CITY           SKY/WX    TMP DP  RH WIND       PRES   REMARKS
MILWAUKEE      PTCLDY    59  50  72 NW12      29.96R
WAUKESHA       PTCLDY    55  46  71 NW9       29.99R
MILWAUKEE/TIMM CLEAR     57  48  72 N9        29.98R
RACINE         CLEAR     60  50  69 N12       29.97R
BURLINGTON     CLOUDY    55  52  88 NW5       29.98R
KENOSHA        CLEAR     58  52  80 NW6       29.96R
FOND DU LAC    CLEAR     56  49  77 NW10      30.01R
SHEBOYGAN      CLEAR     56  48  74 N13       29.97R
WEST BEND      CLEAR     55  46  71 NW7       29.98R
JUNEAU         CLEAR     55  50  82 NW8       30.02R
$$

LSZ147-162-280900-
LAKE SUPERIOR

STATION/POSITION TIME  TEMP    WIND        PRES    WAVE
                       AIR SEA DIR/SP/G            HT/PER
                 (UTC) (F)     (DEG/KT/KT) (MB)    (FT/S)
W MID LAKE BUOY  0650   48 42  290/  8/  8 1018.5F   1/ 4
PORT WING        0700   53     180/  3/  4 1020.0R
SAXON HARBOR     0700             CALM     1019.0
$$

LMZ867-665-643>646-280900-
LAKE MICHIGAN

STATION/POSITION TIME  TEMP    WIND        PRES    WAVE
                       AIR SEA DIR/SP/G            HT/PER
                 (UTC) (F)     (DEG/KT/KT) (MB)    (FT/S)
N MID LAKE BUOY  0650   55 54  350/ 21/ 27 1012.9R   4/ 5
NORTHPORT PIER   0700   57     340/ 22/ 27 1014.9S
KEWAUNEE LAKESHO 0700   57     340/  9/ 15 1015.2R
SHEBOYGAN LAKESH 0700   60     340/ 18/ 22 1014.5R
PORT WASHINGTON  0740   60     320/  7/ 12 1015.2R
ATWATER BUOY     0700   61     340/ 12     1015.0S
MILWAUKEE LAKESH 0700   61     340/ 11/ 14   N/A
S MID LAKE BUOY  0650   61 60  340/ 23/ 29 1011.8R   7/ 7
KENOSHA   LAKESH 0700   62     350/ 13/ 19 1013.5R
$$

TC  - TEMPERATURE IN CELSIUS
VSB - VISIBILITY IN STATUTE MILES
WCI - WIND CHILL INDEX
HX  - HEAT INDEX




USA.gov is the U.S. government's official web portal to all federal, state and local government web resources and services.